Stations météo

réclame
Mon MeteoGroup
Clermont-Ferrand, France (7460): Température de l'air & dewpoint: 13.10.2019 02:00:00 - 19.10.2019 02:00:00 (CEST)Clermont-Ferrand, France (7460): Température de l'air 5cm: 13.10.2019 02:00:00 - 19.10.2019 02:00:00 (CEST)Clermont-Ferrand, France (7460): Température de l'air -20cm & Température de l'air -100cm: 13.10.2019 02:00:00 - 19.10.2019 02:00:00 (CEST)Clermont-Ferrand, France (7460): Vitesse du vent & gusts: 13.10.2019 02:00:00 - 19.10.2019 02:00:00 (CEST)Clermont-Ferrand, France (7460): Direction du vent: 13.10.2019 02:00:00 - 19.10.2019 02:00:00 (CEST)Clermont-Ferrand, France (7460): reduced air pressure: 13.10.2019 02:00:00 - 19.10.2019 02:00:00 (CEST)Clermont-Ferrand, France (7460): visibility: 13.10.2019 02:00:00 - 19.10.2019 02:00:00 (CEST)Clermont-Ferrand, France (7460): Ensoleillement: 13.10.2019 02:00:00 - 19.10.2019 02:00:00 (CEST)Clermont-Ferrand, France (7460): Quantités de précipitations: 13.10.2019 02:00:00 - 19.10.2019 02:00:00 (CEST)
Date & Time tt [°C] td [°C] tt 5cm [°C] tt -20cm [°C] tt -100cm [°C] ff [km/h] ff [knt] fx [km/h] fx [knt] dd ppp [hPa] vv [km] sd [min] rr [mm]
19.10.2019 02:00:00 12,2 10,3 - - - 9 5 22 12 SW 1010,3 35 - -
19.10.2019 01:00:00 12,5 10,4 10,2 15,3 16,5 13 7 19 10 SSW 1010,6 59 0 0,0
19.10.2019 00:00:00 12,4 10,1 10,6 15,3 16,5 13 7 18 10 S 1011,1 60 0 0,0
18.10.2019 23:00:00 13,0 9,8 10,6 15,3 16,5 9 5 16 8 SSE 1011,4 59 0 0,0
18.10.2019 22:00:00 13,6 10,4 11,8 15,3 16,5 13 7 18 10 SW 1011,9 59 0 0,0
18.10.2019 21:00:00 13,8 10,2 11,7 15,3 16,5 6 3 14 8 SW 1012,4 48 0 0,0
18.10.2019 20:00:00 14,3 11,6 13,0 15,3 16,5 7 4 11 6 E 1013,0 52 0 0,0
18.10.2019 19:00:00 16,1 9,7 15,1 15,3 16,5 5 3 9 5 NW 1012,9 58 0 0,0
18.10.2019 18:00:00 16,4 11,8 16,2 15,3 16,5 6 3 14 8 SE 1012,9 60 0 0,0
18.10.2019 17:00:00 17,5 10,4 17,5 15,3 16,5 8 4 22 12 ESE 1012,8 58 0 0,0
18.10.2019 16:00:00 17,2 9,6 17,3 15,3 16,5 16 9 27 15 SW 1013,1 55 0 0,0
18.10.2019 15:00:00 17,0 10,6 17,2 15,3 16,5 14 8 34 19 WSW 1013,3 55 0 0,0
18.10.2019 14:00:00 16,5 10,8 15,4 15,3 16,5 14 8 28 15 W 1013,9 37 0 0,0
18.10.2019 13:00:00 16,0 11,8 13,7 15,3 16,5 14 7 24 13 W 1014,8 38 0 0,2
18.10.2019 12:00:00 16,5 10,8 15,3 15,4 16,5 13 7 26 14 WSW 1014,5 51 0 0,0
18.10.2019 11:00:00 15,3 11,5 14,6 15,4 16,6 3 1 7 4 S 1014,5 35 0 0,0
18.10.2019 10:00:00 14,8 10,6 12,6 15,4 16,5 3 2 16 9 S 1014,0 44 0 0,0
18.10.2019 09:00:00 14,2 10,2 13,0 15,4 16,5 10 6 31 17 WSW 1013,3 45 0 0,0
18.10.2019 08:00:00 14,1 10,3 13,1 15,4 16,6 16 9 30 16 SW 1012,4 41 0 0,0
18.10.2019 07:00:00 13,8 10,6 12,6 15,4 16,6 19 10 26 14 SSW 1012,4 52 0 0,0
18.10.2019 06:00:00 13,7 10,5 12,6 15,5 16,6 18 10 35 19 S 1012,4 54 0 0,0
18.10.2019 05:00:00 13,3 10,7 12,6 15,5 16,6 23 12 35 19 S 1012,6 47 0 0,0
18.10.2019 04:00:00 13,5 10,5 12,6 15,5 16,6 23 12 34 18 S 1013,1 48 0 0,0
18.10.2019 03:00:00 13,6 10,6 11,9 15,5 16,6 14 7 25 13 S 1013,8 52 0 0,0
18.10.2019 02:00:00 14,0 9,8 11,5 15,5 16,6 6 3 25 14 SSW 1013,6 60 0 0,0
18.10.2019 01:00:00 13,3 9,7 11,2 15,5 16,6 16 8 29 16 SSW 1014,3 58 0 0,0
18.10.2019 00:00:00 12,9 9,5 10,5 15,5 16,6 15 8 21 11 SSW 1014,3 60 0 0,0
17.10.2019 23:00:00 13,3 9,5 11,6 15,5 16,6 17 9 24 13 S 1014,9 60 0 0,0
17.10.2019 22:00:00 13,6 9,6 10,8 15,5 16,6 13 7 22 12 SSE 1015,0 60 0 0,0
17.10.2019 21:00:00 15,6 9,9 14,1 15,5 16,6 15 8 25 13 SSW 1014,8 60 0 0,0
17.10.2019 20:00:00 16,5 10,1 11,1 15,5 16,6 5 3 16 9 SSE 1014,3 60 0 0,0
17.10.2019 19:00:00 15,8 10,3 14,1 15,5 16,6 10 6 29 15 SE 1014,1 57 4 0,0
17.10.2019 18:00:00 18,0 11,1 19,6 15,5 16,6 22 12 46 25 SSW 1013,5 41 60 0,0
17.10.2019 17:00:00 18,5 10,6 18,7 15,5 16,6 29 16 42 23 SSW 1013,2 33 46 0,0
17.10.2019 16:00:00 17,4 11,7 14,7 15,5 16,6 14 7 22 12 S 1013,4 49 0 0,0
17.10.2019 15:00:00 14,3 13,0 14,1 15,5 16,6 6 3 14 7 S 1013,8 13 0 0,0
17.10.2019 14:00:00 14,2 12,6 13,7 15,5 16,6 11 6 27 15 SE 1014,4 20 0 0,2
17.10.2019 13:00:00 15,5 10,0 12,7 15,6 16,6 14 8 27 15 SSE 1014,4 36 0 0,0
17.10.2019 12:00:00 14,4 10,8 12,6 15,6 16,6 18 10 27 15 SSE 1014,6 10 0 0,6
17.10.2019 11:00:00 13,4 10,7 12,0 15,6 16,6 19 10 43 23 S 1014,6 20 0 1,4
17.10.2019 10:00:00 13,6 9,8 11,5 15,6 16,6 22 12 39 21 S 1014,3 24 0 1,0
17.10.2019 09:00:00 13,2 9,4 11,4 15,6 16,6 10 6 25 14 S 1013,8 25 0 0,2
17.10.2019 08:00:00 13,8 8,4 12,3 15,6 16,6 6 4 31 17 SW 1013,7 42 0 0,0
17.10.2019 07:00:00 13,0 8,9 11,8 15,6 16,6 4 2 29 15 SE 1014,0 60 0 0,0
17.10.2019 06:00:00 13,0 9,1 11,0 15,6 16,6 16 8 32 17 S 1014,2 59 0 0,2
17.10.2019 05:00:00 13,8 8,6 13,1 15,6 16,6 12 7 27 15 S 1014,5 56 0 0,0
17.10.2019 04:00:00 13,8 9,0 13,2 15,6 16,6 11 6 31 17 S 1014,7 60 0 0,0
17.10.2019 03:00:00 14,1 9,1 13,4 15,6 16,6 23 13 37 20 S 1014,8 55 0 0,0
17.10.2019 02:00:00 14,0 9,4 13,3 15,6 16,6 19 10 31 17 S 1015,2 60 0 0,0
17.10.2019 01:00:00 14,6 9,6 13,5 15,6 16,6 18 10 31 17 S 1014,8 10 0 0,0
17.10.2019 00:00:00 14,4 9,6 12,7 15,6 16,6 12 6 17 9 S 1014,7 60 0 0,0
16.10.2019 23:00:00 14,2 9,4 11,0 15,6 16,6 3 1 8 4 SE 1014,6 60 0 0,0
16.10.2019 22:00:00 13,6 9,4 10,5 15,6 16,6 3 2 12 7 ESE 1014,2 60 0 0,0
16.10.2019 21:00:00 14,7 9,5 12,5 15,6 16,6 10 5 25 14 S 1013,5 60 0 0,0
16.10.2019 20:00:00 15,4 9,3 12,8 15,6 16,6 14 8 22 12 S 1013,4 29 0 0,0
16.10.2019 19:00:00 17,0 7,3 15,5 15,6 16,6 8 4 23 12 SSW 1013,1 60 0 0,0
16.10.2019 18:00:00 18,5 6,3 17,8 15,6 16,6 18 10 28 15 SW 1012,9 57 20 0,0
16.10.2019 17:00:00 19,2 6,6 19,9 15,6 16,6 15 8 31 17 SSW 1012,7 58 36 0,0
16.10.2019 16:00:00 20,5 7,8 23,1 15,7 16,7 22 12 36 19 S 1012,8 19 60 0,0
16.10.2019 15:00:00 20,1 6,8 22,3 15,7 16,7 21 12 39 21 S 1013,2 19 60 0,0
16.10.2019 14:00:00 19,0 8,6 21,0 15,7 16,7 27 14 41 22 SSE 1013,8 21 60 0,0
16.10.2019 13:00:00 17,2 8,9 19,4 15,8 16,7 28 15 41 22 S 1015,3 24 60 0,0
16.10.2019 12:00:00 15,3 8,5 16,8 15,8 16,6 25 13 40 22 S 1015,5 26 60 0,0
16.10.2019 11:00:00 13,4 8,2 13,9 15,9 16,6 26 14 46 25 S 1016,1 30 60 0,0
16.10.2019 10:00:00 10,9 7,0 10,5 15,9 16,7 29 15 45 24 S 1017,0 35 60 0,0
16.10.2019 09:00:00 9,1 6,4 8,3 16,0 16,7 22 12 43 23 S 1017,2 21 23 0,0
16.10.2019 08:00:00 9,1 6,4 7,5 16,0 16,6 26 14 38 21 S 1016,7 60 0 0,0
16.10.2019 07:00:00 9,0 6,4 7,9 16,1 16,7 19 11 35 19 S 1016,9 60 0 0,0
16.10.2019 06:00:00 9,1 6,5 7,3 16,1 16,6 23 12 34 19 S 1017,1 60 0 0,0
16.10.2019 05:00:00 9,3 6,6 7,9 16,1 16,6 18 10 35 19 S 1017,3 60 0 0,0
16.10.2019 04:00:00 9,5 6,8 8,7 16,2 16,7 12 7 31 17 SW 1017,7 60 0 0,0
16.10.2019 03:00:00 10,3 6,8 9,6 16,2 16,7 19 11 32 17 S 1017,7 60 0 0,0
16.10.2019 02:00:00 10,2 6,9 9,3 16,2 16,6 19 10 32 18 S 1017,6 60 0 0,0
16.10.2019 01:00:00 10,6 6,9 9,9 16,2 16,6 4 2 21 11 SSE 1017,8 60 0 0,0
16.10.2019 00:00:00 10,9 6,4 7,9 16,3 16,6 13 7 21 11 SSE 1017,4 60 0 0,0
15.10.2019 23:00:00 11,3 6,0 8,5 16,3 16,6 9 5 15 8 SE 1017,4 60 0 0,0
15.10.2019 22:00:00 10,3 6,4 8,0 16,3 16,7 12 6 23 13 S 1017,4 60 0 0,0
15.10.2019 21:00:00 11,6 6,3 9,8 16,3 16,7 10 5 34 18 S 1016,9 60 0 0,0
15.10.2019 20:00:00 12,0 5,8 8,4 16,3 16,7 15 8 31 17 SW 1016,5 60 0 0,0
15.10.2019 19:00:00 12,9 6,5 11,5 16,3 16,6 11 6 37 20 SSW 1015,4 60 19 0,0
15.10.2019 18:00:00 14,0 6,4 15,9 16,4 16,6 16 9 33 18 SW 1014,0 45 60 0,0
15.10.2019 17:00:00 14,9 7,7 12,2 16,4 16,6 18 10 27 15 W 1013,6 60 18 0,0
15.10.2019 16:00:00 12,3 8,4 10,0 16,4 16,7 13 7 23 12 SE 1013,9 59 0 0,2
15.10.2019 15:00:00 11,7 6,4 9,3 16,4 16,6 8 4 40 22 SSE 1013,6 10 0 1,0
15.10.2019 14:00:00 12,7 7,4 10,9 16,4 16,6 16 8 36 19 W 1013,0 19 0 0,4
15.10.2019 13:00:00 13,8 8,0 13,3 16,4 16,6 15 8 32 17 W 1012,1 48 0 0,0
15.10.2019 12:00:00 13,0 8,9 11,4 16,4 16,6 13 7 31 17 W 1011,6 30 0 0,0
15.10.2019 11:00:00 13,3 10,3 12,3 16,5 16,6 9 5 20 11 S 1011,1 29 0 0,2
15.10.2019 10:00:00 12,6 10,8 11,7 16,5 16,6 10 5 19 10 S 1010,8 60 0 0,0
15.10.2019 09:00:00 12,1 10,8 11,2 16,5 16,7 8 5 24 13 SSE 1009,3 60 0 -
15.10.2019 08:00:00 11,9 10,8 11,3 16,6 16,7 10 6 18 10 S 1009,5 19 0 0,0
15.10.2019 07:00:00 11,8 10,7 10,7 16,6 16,7 7 4 15 8 ESE 1010,0 59 0 0,0
15.10.2019 06:00:00 11,6 10,8 11,0 16,6 16,7 9 5 13 7 SSW 1008,9 60 0 0,0
15.10.2019 05:00:00 11,7 11,1 11,3 16,7 16,7 5 3 9 5 SE 1009,6 59 0 0,2
15.10.2019 04:00:00 11,6 11,1 11,3 16,6 16,6 8 4 21 12 E 1009,0 8 0 3,5
15.10.2019 03:00:00 11,6 11,1 11,4 16,7 16,6 10 5 28 15 ENE 1009,7 8 0 4,4
15.10.2019 02:00:00 12,1 11,6 11,8 16,7 16,6 13 7 32 17 NNE 1009,3 1,7 0 7,9
15.10.2019 01:00:00 13,0 11,6 12,2 16,8 16,7 9 5 30 16 NNW 1009,2 0,8 0 10,4
15.10.2019 00:00:00 17,4 14,5 15,7 16,7 16,7 7 4 26 14 NE 1007,9 24 0 0,4
14.10.2019 23:00:00 17,8 13,9 15,9 16,7 16,7 20 11 68 37 S 1007,4 42 0 0,2
14.10.2019 22:00:00 21,1 12,0 19,9 16,6 16,7 18 10 34 18 SSE 1007,6 49 0 0,0
14.10.2019 21:00:00 21,5 11,5 20,5 16,6 16,7 29 16 59 32 S 1007,5 39 0 0,0
14.10.2019 20:00:00 21,6 11,3 20,8 16,6 16,6 42 23 74 40 S 1008,1 16 0 0,0
14.10.2019 19:00:00 22,7 11,7 21,9 16,5 16,7 39 21 62 33 S 1007,9 16 22 0,0
14.10.2019 18:00:00 24,0 12,0 24,8 16,5 16,7 33 18 77 42 S 1007,2 24 57 0,0
14.10.2019 17:00:00 24,1 11,4 24,6 16,5 16,6 44 24 70 38 S 1006,9 28 18 0,0
14.10.2019 16:00:00 24,4 11,7 24,6 16,5 16,7 45 25 71 38 S 1007,3 38 0 0,0
14.10.2019 15:00:00 24,4 12,4 25,0 16,5 16,6 34 18 69 38 SSE 1007,7 20 24 0,0
14.10.2019 14:00:00 25,8 12,6 28,0 16,5 16,7 45 25 68 37 S 1008,0 12 60 0,0
14.10.2019 13:00:00 25,3 12,5 25,9 16,5 16,7 46 25 69 37 S 1008,7 12 54 0,0
14.10.2019 12:00:00 23,6 12,3 23,0 16,6 16,7 40 21 69 37 S 1010,3 13 53 0,0
14.10.2019 11:00:00 21,8 12,1 20,7 16,5 16,7 38 21 70 38 S 1011,4 13 32 0,0
14.10.2019 10:00:00 20,4 11,6 20,1 16,5 16,7 39 21 62 34 S 1012,2 14 58 0,0
14.10.2019 09:00:00 19,0 11,3 15,4 16,6 16,7 32 18 57 31 S 1012,5 17 36 0,0
14.10.2019 08:00:00 17,5 10,8 15,9 16,6 16,7 10 6 25 14 E 1012,2 45 0 0,0
14.10.2019 07:00:00 17,3 10,9 15,7 16,6 16,7 12 7 39 21 SE 1012,8 46 0 0,0
14.10.2019 06:00:00 16,8 11,1 15,2 16,6 16,7 11 6 27 14 SSW 1013,0 50 0 0,0
14.10.2019 05:00:00 16,7 11,0 15,6 16,6 16,7 17 9 31 17 SSW 1013,2 50 0 0,0
14.10.2019 04:00:00 17,3 10,7 16,3 16,6 16,7 16 9 41 22 SSW 1013,6 36 0 0,0
14.10.2019 03:00:00 17,7 10,8 16,3 16,6 16,7 19 10 47 26 SSW 1014,0 54 0 0,0
14.10.2019 02:00:00 17,3 11,1 16,1 16,5 16,7 22 12 48 26 S 1014,5 43 0 0,0
14.10.2019 01:00:00 17,5 10,8 15,2 16,5 16,7 26 14 45 24 S 1014,8 40 0 0,0
14.10.2019 00:00:00 17,4 11,0 15,4 16,5 16,7 10 5 40 21 WSW 1015,3 55 0 0,0
13.10.2019 23:00:00 18,2 11,3 16,2 16,4 16,7 16 9 43 23 S 1015,4 53 0 0,0
13.10.2019 22:00:00 19,3 11,6 18,3 16,4 16,7 16 8 61 33 SSE 1015,1 59 0 0,0
13.10.2019 21:00:00 19,9 11,6 19,1 16,4 16,7 43 23 74 40 S 1014,4 55 0 0,0
13.10.2019 20:00:00 20,8 11,7 19,9 16,3 16,7 44 24 67 36 S 1013,2 54 0 0,0
13.10.2019 19:00:00 21,9 11,6 21,2 16,3 16,7 36 20 56 31 S 1012,8 57 43 0,0
13.10.2019 18:00:00 23,4 11,8 24,6 16,3 16,8 40 22 61 33 S 1012,4 20 60 0,0
13.10.2019 17:00:00 24,5 11,4 26,7 16,2 16,7 40 22 61 33 S 1012,1 17 60 0,0
13.10.2019 16:00:00 25,5 12,0 28,2 16,2 16,7 40 22 66 35 S 1012,0 14 60 0,0
13.10.2019 15:00:00 25,3 11,8 28,2 16,2 16,8 41 22 71 38 S 1012,0 16 60 0,0
13.10.2019 14:00:00 25,0 11,9 27,6 16,2 16,8 41 22 68 37 S 1012,8 20 60 0,0
13.10.2019 13:00:00 24,1 12,4 23,3 16,2 16,7 42 23 66 35 S 1013,4 27 45 0,0
13.10.2019 12:00:00 22,3 12,3 22,9 16,2 16,8 42 23 67 36 S 1013,7 31 37 0,0
13.10.2019 11:00:00 21,0 12,2 19,9 16,2 16,8 44 24 70 38 S 1013,8 22 40 0,0
13.10.2019 10:00:00 19,1 11,1 18,0 16,2 16,8 47 26 71 39 S 1013,8 11 52 0,0
13.10.2019 09:00:00 17,4 10,3 16,4 16,2 16,8 45 25 79 43 S 1013,8 20 16 0,0
13.10.2019 08:00:00 17,5 10,1 16,7 16,2 16,8 49 26 76 41 S 1012,8 58 0 0,0
13.10.2019 07:00:00 17,5 10,6 16,7 16,2 16,8 43 23 73 39 S 1013,1 60 0 0,0
13.10.2019 06:00:00 18,4 11,5 17,7 16,2 16,8 36 20 66 35 S 1013,1 59 0 0,0
13.10.2019 05:00:00 18,5 12,0 17,7 16,1 16,8 42 23 71 39 S 1013,2 58 0 0,0
13.10.2019 04:00:00 18,7 12,4 17,9 16,1 16,8 34 18 69 37 S 1013,9 60 0 0,0
13.10.2019 03:00:00 18,7 12,4 17,5 16,1 16,8 31 17 59 32 S 1014,2 60 0 0,0
13.10.2019 02:00:00 18,5 12,5 17,8 16,1 16,8 39 21 62 33 S 1014,3 60 0 0,0

tt = Température de l'air
td = dewpoint
tt 5cm = Température de l'air 5cm
tt -20cm = Température de l'air -20cm
tt -100cm = Température de l'air -100cm
ff = Vitesse du vent
fx = gusts
dd = Direction du vent
ppp = reduced air pressure
vv = visibility
sd = Ensoleillement
rr = Quantités de précipitations

stations d'obs. à proximité